Wind_Speed
66 64 63 64 65 65 64 63 64 66 68 69 70 70 70 71 71 71 71 71 71 72 72 72 73 73 74 74 74 74 74 73 73 72 71 70 70 69 69 68 68 68 68 68 68 68 68 68 68 68 68 68 68 68 68 67 66 65 65 65 65 65
72 69 68 66 66 67 66 64 63 63 64 66 67 67 67 68 68 69 70 71 71 71 71 71 72 72 72 72 72 72 72 72 72 72 72 72 72 71 71 70 70 70 70 70 69 69 69 69 69 68 68 68 68 68 68 67 66 66 66 66 66 66
74 73 71 70 69 69 69 68 66 65 64 65 65 66 67 67 67 68 69 70 71 71 70 70 70 70 70 69 69 69 69 69 69 69 70 71 71 71 70 69 69 69 69 69 68 68 68 68 67 67 68 68 68 67 67 67 66 66 65 66 66 66
76 76 76 75 73 73 72 72 72 70 69 68 68 68 68 69 68 68 69 69 69 70 70 69 69 68 67 67 66 66 66 66 66 67 67 67 67 67 66 66 65 64 64 64 63 63 63 63 63 64 65 65 66 66 66 66 66 66 66 66 66 66
78 79 79 78 77 77 76 75 75 75 74 73 72 72 71 71 71 71 71 70 70 70 70 69 69 68 67 67 66 65 65 65 66 66 66 65 64 64 63 62 61 60 60 59 58 57 57 57 58 59 60 61 62 62 63 64 65 65 66 66 66 66
77 77 76 76 77 77 78 78 77 77 77 77 77 76 75 75 74 74 74 73 73 72 71 71 71 70 70 69 68 67 67 66 67 67 67 66 65 63 62 61 60 59 59 58 57 57 57 57 58 58 59 59 59 60 60 61 62 63 64 65 65 66
78 77 76 75 75 75 75 76 77 78 78 79 79 79 79 78 78 78 78 77 77 76 75 74 73 73 73 72 72 71 70 69 69 69 69 69 68 66 64 62 61 60 60 60 59 59 59 59 60 60 60 59 60 60 61 61 62 63 64 64 65 66
75 77 77 75 74 74 74 75 75 76 77 78 79 80 80 80 81 81 81 81 80 79 78 77 77 77 76 75 75 74 73 72 71 71 71 71 71 70 68 66 65 64 64 63 63 63 63 63 63 64 63 64 64 64 64 64 64 64 65 65 66 66
73 73 74 74 74 73 74 74 74 73 74 75 76 78 79 81 82 83 83 83 82 81 80 80 80 80 80 79 78 77 76 75 74 73 73 73 73 72 71 70 69 68 68 68 67 67 67 67 67 67 67 67 67 67 66 66 66 66 66 66 66 66
75 72 71 72 73 73 73 73 74 74 73 73 73 74 76 78 80 82 83 83 83 83 82 81 82 82 82 81 81 80 79 78 77 76 76 75 74 74 74 74 73 73 72 72 72 71 71 71 70 69 69 69 69 69 69 69 68 68 68 67 67 67
79 76 74 73 73 74 73 72 73 74 74 74 74 74 74 75 77 78 80 82 83 83 83 83 84 83 84 84 83 83 82 81 81 80 80 79 78 78 78 77 77 77 77 76 76 76 75 74 72 72 71 72 72 72 72 72 71 71 70 69 68 68
78 78 77 75 74 75 74 74 74 74 74 75 75 75 75 75 75 75 76 77 78 80 81 82 83 84 85 85 86 86 85 85 85 84 84 83 82 82 82 82 82 82 81 81 80 80 79 78 77 76 76 75 74 75 75 75 74 74 73 72 71 70
77 77 77 75 74 74 74 76 77 77 77 76 76 76 76 76 76 75 75 75 75 76 77 79 80 81 82 84 85 86 86 87 87 88 88 88 87 87 86 86 86 85 86 85 85 84 84 83 82 81 79 78 77 77 77 77 77 76 76 75 74 73
80 79 78 77 75 73 72 74 76 77 78 78 78 78 78 78 78 78 78 77 77 78 78 79 80 80 80 81 82 83 83 84 86 87 88 89 89 90 90 89 89 89 89 89 88 88 87 86 85 84 82 80 79 78 78 78 78 78 78 77 76 76
83 83 82 82 80 78 76 74 74 75 76 77 78 78 79 79 80 80 80 80 80 80 80 81 82 82 82 81 81 82 82 83 83 83 84 85 87 88 89 89 90 90 90 90 90 89 88 86 84 83 82 81 80 79 79 79 78 78 78 78 77 77
85 85 85 85 84 83 81 78 77 77 77 77 77 77 78 79 79 80 80 80 80 80 81 82 82 83 82 82 82 82 82 82 82 81 81 82 83 84 85 85 86 86 86 86 86 86 84 83 81 80 80 79 79 79 79 79 79 79 78 78 78 78
88 89 88 87 86 86 84 83 82 81 79 78 78 78 78 79 80 80 80 79 79 80 80 81 81 81 81 80 80 81 81 81 80 80 80 80 80 81 81 81 81 81 81 81 81 81 79 78 78 78 78 79 79 79 80 79 79 79 79 79 79 79
92 92 91 91 90 90 90 89 88 87 85 83 81 81 80 81 81 82 82 81 80 80 80 80 81 80 80 80 79 79 79 79 79 79 79 80 80 79 79 79 79 79 80 80 79 79 77 76 76 77 77 78 79 79 80 80 79 79 79 79 80 80
97 97 97 96 96 96 94 93 92 92 91 90 89 87 85 84 83 83 82 82 81 81 81 81 81 81 81 81 81 80 80 80 80 80 80 80 80 80 80 80 80 80 80 79 79 79 77 76 76 76 77 78 79 80 80 80 79 79 79 78 79 79
95 96 97 98 99 100 99 98 96 95 93 92 92 91 90 89 88 87 86 85 84 83 83 83 83 83 83 83 83 83 83 83 83 82 82 82 82 81 81 81 81 81 81 80 80 79 78 77 77 77 78 78 79 80 80 80 79 78 78 77 77 76
88 90 91 91 92 93 94 95 96 96 96 94 93 93 92 92 91 91 91 92 91 91 91 90 89 88 87 86 85 84 84 84 85 85 85 85 84 83 82 82 83 82 82 82 81 81 80 79 79 79 79 79 80 80 80 80 80 78 77 76 74 73
83 85 86 86 86 86 86 87 88 90 91 91 91 91 91 90 90 90 90 91 92 94 95 96 96 95 94 92 91 89 87 86 85 86 87 87 87 86 86 85 85 84 84 83 83 83 82 81 81 81 82 81 81 81 80 80 80 79 77 75 74 73
84 83 83 84 83 83 83 83 83 83 84 84 84 84 84 83 83 82 81 81 81 82 84 87 90 93 94 95 95 95 94 92 90 89 87 87 87 87 87 87 87 87 86 85 85 84 84 83 83 82 82 82 81 81 80 80 79 78 77 76 74 74
82 84 85 86 85 85 84 84 84 83 83 83 83 82 82 81 79 78 77 75 74 73 72 72 74 77 81 84 88 90 92 94 95 94 93 91 90 88 87 87 87 87 86 86 86 84 83 83 83 82 81 80 79 78 78 78 77 76 76 74 72 72
72 75 78 80 82 83 84 84 85 85 85 85 85 85 84 83 82 80 79 77 76 75 73 72 70 68 69 70 73 76 79 83 86 90 92 94 94 94 93 91 90 89 87 86 85 84 83 82 82 81 80 78 76 75 75 74 73 73 73 72 71 72
65 66 68 69 71 73 75 76 77 78 80 81 81 81 81 80 80 79 78 77 76 76 75 75 74 72 70 68 66 66 66 69 72 76 79 83 86 89 92 94 94 94 93 91 89 87 84 83 82 81 80 79 77 75 74 73 71 70 70 70 70 71
65 66 66 67 67 68 69 70 71 71 72 73 73 74 73 74 74 74 73 72 72 71 71 71 71 72 71 71 69 65 62 61 63 65 67 69 71 74 77 81 85 89 92 94 94 93 90 87 85 84 83 82 80 79 78 76 74 73 71 70 69 69
64 65 65 66 66 67 67 68 69 70 70 70 70 70 70 69 69 69 69 68 67 67 66 65 64 64 65 67 68 68 66 64 62 62 62 63 63 64 65 67 70 73 77 81 85 89 91 92 90 88 86 85 84 83 82 81 79 77 76 74 73 72
61 61 62 63 63 63 64 64 65 66 67 68 68 69 69 70 69 69 69 68 67 66 65 63 62 61 60 61 63 65 67 67 66 64 63 62 62 61 61 61 62 64 67 69 72 75 80 84 87 88 88 87 86 86 85 84 82 81 79 79 78 77
59 59 60 60 59 59 60 60 61 62 63 64 65 66 67 68 69 69 69 69 68 67 66 64 63 62 61 60 60 61 62 64 66 66 65 65 64 62 61 60 60 60 62 64 66 68 70 72 76 79 82 83 84 85 86 85 83 81 80 81 81 79
57 57 58 58 57 57 57 58 58 59 60 60 61 62 63 64 65 66 67 67 67 66 66 65 65 65 62 59 58 60 61 61 63 64 65 66 66 66 65 63 61 60 59 60 61 64 66 69 70 71 73 75 78 81 83 84 82 80 80 82 83 82
59 59 60 60 60 59 58 58 58 59 60 61 61 61 61 61 61 61 61 62 62 63 63 63 64 65 64 59 56 57 59 61 61 62 63 64 66 67 67 66 65 63 61 60 60 61 63 66 69 70 70 70 72 74 78 81 82 82 81 82 84 84
63 63 63 63 61 61 60 60 60 61 61 62 61 61 61 61 61 60 59 58 58 58 59 59 60 62 64 63 59 57 56 57 59 60 60 61 63 65 66 67 66 65 64 64 63 63 63 64 66 68 69 68 69 70 72 76 80 81 81 81 82 82
64 64 64 63 62 61 61 61 60 60 61 61 61 61 61 61 61 61 60 58 56 55 55 55 56 58 60 62 61 59 56 55 56 58 59 59 60 61 63 64 65 65 66 66 66 65 65 65 66 68 69 67 66 66 67 70 74 78 80 82 82 82
63 63 63 62 61 60 59 58 58 57 56 56 56 57 57 57 58 59 59 58 56 54 52 50 50 52 55 58 59 59 55 53 52 54 57 58 59 60 60 61 62 63 64 65 65 66 66 65 65 66 69 69 66 64 64 66 69 72 75 78 80 82
63 63 62 60 58 57 56 55 55 54 54 53 53 53 53 53 53 53 53 52 51 49 47 45 44 45 47 50 54 56 57 55 54 53 53 55 57 59 60 60 60 59 60 61 62 63 64 65 64 63 65 67 67 65 64 65 67 70 72 74 76 77
65 64 64 62 59 56 55 54 53 53 53 53 52 51 51 50 50 48 47 46 45 44 43 42 42 42 42 43 45 49 53 57 57 56 55 54 54 56 57 59 60 58 57 58 59 59 59 60 62 62 62 62 62 63 64 64 64 67 70 73 74 75
69 69 68 66 64 62 61 59 58 58 57 56 55 53 52 50 49 48 46 45 44 43 43 42 42 42 42 41 42 43 47 51 55 57 57 56 55 53 54 55 57 57 56 55 53 51 51 53 56 59 61 61 60 60 62 62 61 63 67 69 70 72
Wind_Direction
254 251 249 249 251 253 255 257 259 260 261 262 262 263 263 263 263 263 262 262 262 262 263 263 263 263 263 263 263 263 264 265 265 266 266 266 265 265 265 265 265 265 265 266 267 267 268 269 270 271 272 272 273 274 274 275 276 276 277 278 278 279
254 253 252 251 251 252 254 256 258 259 260 262 263 264 264 264 264 263 263 262 262 262 263 263 263 263 263 263 264 264 264 265 265 266 266 266 266 267 267 267 267 266 266 266 267 267 268 268 269 270 271 272 272 273 274 275 275 276 277 277 278 278
255 256 256 255 255 254 255 256 257 257 258 259 261 263 263 263 263 262 262 262 262 262 262 262 263 263 263 264 264 264 265 265 265 265 265 265 266 266 266 267 267 268 268 268 268 268 269 269 269 270 271 271 272 273 274 275 275 276 276 277 277 278
257 257 257 257 256 256 255 256 256 256 256 256 256 258 260 261 261 261 261 261 261 260 260 261 261 262 262 263 264 265 265 266 265 265 265 265 264 264 265 265 266 267 267 268 269 269 270 270 270 271 271 272 272 273 274 275 275 276 276 277 277 278
257 256 257 257 257 256 255 255 255 255 255 254 254 254 256 257 259 260 260 260 260 260 259 260 260 261 262 263 264 265 265 265 265 264 264 263 263 262 262 262 263 263 265 266 267 268 269 270 270 271 272 273 273 274 275 275 276 276 276 277 277 277
258 257 257 257 257 257 256 255 254 253 254 254 254 253 253 254 255 257 258 259 260 260 260 260 261 261 262 263 263 264 264 264 264 264 263 262 261 261 261 261 262 262 263 264 265 266 268 269 270 271 272 273 275 275 276 276 277 277 277 277 276 276
260 259 258 257 257 257 257 256 254 253 253 253 253 253 253 252 253 253 255 256 257 259 260 260 261 262 262 263 263 263 263 263 263 262 262 261 260 259 259 260 261 262 263 264 266 267 268 270 271 272 273 275 276 277 278 278 278 278 278 278 277 276
260 259 259 258 257 257 257 257 256 254 253 253 252 252 253 253 253 253 253 254 255 256 258 259 260 261 261 262 262 263 263 262 262 261 261 261 261 260 260 260 260 261 263 265 266 268 270 271 273 274 275 275 276 277 277 278 278 277 277 277 276 275
260 259 259 258 258 256 256 256 256 256 255 254 254 253 253 253 253 254 254 254 255 255 256 257 258 259 260 261 261 262 262 262 262 261 261 261 260 260 260 261 261 262 264 265 267 269 271 272 273 274 274 275 275 276 276 276 275 274 274 273 273 272
260 259 258 258 258 257 256 255 255 256 256 256 255 255 254 254 254 254 255 255 255 256 256 256 257 258 259 260 260 261 261 261 261 261 261 261 260 260 261 261 262 263 265 266 268 270 271 272 272 273 274 274 275 275 274 274 273 272 271 271 270 269
259 258 257 256 256 257 256 255 254 254 255 256 256 256 255 255 254 254 255 255 256 256 256 256 256 256 257 258 259 259 260 260 261 261 261 261 261 261 261 262 263 264 265 267 269 270 271 272 272 272 273 273 273 273 272 271 270 270 269 269 268 268
259 258 257 256 255 255 255 255 254 254 254 254 255 256 256 256 255 255 255 255 256 256 256 257 256 256 256 257 257 258 258 259 260 261 261 261 261 261 262 263 264 265 266 268 269 270 271 272 273 273 273 272 271 270 269 269 268 268 267 267 267 267
259 259 259 258 256 255 254 254 254 254 253 253 254 254 255 256 256 256 256 256 257 257 257 257 257 257 257 257 257 257 258 258 259 260 261 262 262 262 262 263 264 265 266 267 269 270 271 272 273 273 272 271 270 268 268 268 268 267 267 267 268 268
259 259 258 258 257 256 255 253 253 253 253 253 253 253 254 255 256 257 257 257 257 257 257 257 257 257 257 258 258 259 259 259 259 260 261 262 263 263 263 264 264 265 266 267 268 269 270 271 271 272 271 271 270 269 268 268 268 268 268 268 268 269
260 259 259 258 258 257 257 255 254 253 253 253 253 253 254 255 255 256 256 257 257 257 257 257 257 258 258 258 259 260 260 260 260 260 261 261 262 263 263 264 264 265 266 266 267 268 268 269 269 270 270 270 269 269 269 269 269 269 269 269 270 270
261 261 260 259 259 259 259 258 257 256 255 254 254 254 254 254 254 255 255 255 256 257 257 257 257 258 258 259 259 259 260 260 260 260 260 261 261 262 262 263 263 264 264 265 265 265 266 266 267 268 268 269 269 269 269 269 269 269 269 270 270 271
261 261 261 261 261 261 261 260 259 258 258 257 256 256 255 255 255 254 254 254 254 255 256 257 257 257 258 258 258 259 259 260 260 260 260 260 260 261 261 262 262 263 263 263 263 264 264 265 265 266 267 268 268 268 268 268 269 269 269 270 270 271
260 261 262 263 263 263 262 262 261 261 260 259 259 258 257 256 256 256 255 254 253 254 255 256 257 257 257 257 258 258 259 259 260 260 260 260 260 261 261 262 262 263 263 263 264 264 264 264 265 265 266 267 268 268 268 268 268 268 269 269 270 271
261 261 262 262 263 264 264 264 263 263 263 262 262 261 260 258 257 256 255 255 254 254 254 256 257 257 257 257 257 257 258 258 259 259 259 260 260 260 261 261 262 262 263 263 264 264 264 263 264 265 265 266 267 267 267 267 267 268 268 268 269 270
261 262 262 263 263 264 264 265 265 265 265 265 265 265 264 263 261 259 257 256 255 255 255 256 257 257 257 256 257 257 257 257 257 258 258 258 259 259 260 260 261 261 261 262 262 263 263 262 263 263 264 265 266 266 267 267 266 266 267 267 268 269
262 263 263 264 265 265 265 265 266 266 266 266 266 267 267 267 266 265 263 261 260 259 258 258 258 258 257 256 256 256 256 256 256 256 257 257 257 257 257 258 259 260 260 260 260 260 261 261 262 262 263 264 265 265 266 266 266 266 266 267 267 269
264 265 265 266 266 267 267 267 267 267 267 267 267 268 268 268 269 269 268 267 266 265 264 263 262 262 261 259 258 256 256 256 255 255 255 256 256 256 256 257 257 258 259 260 260 260 260 260 261 262 262 263 264 265 265 265 266 266 266 267 268 268
266 267 267 267 268 268 268 268 269 269 269 269 268 268 268 268 268 268 268 268 268 268 267 267 266 265 265 264 262 260 259 258 257 256 255 255 256 256 256 257 258 258 259 259 260 260 261 261 261 262 262 263 264 264 265 266 266 266 267 268 269 270
268 268 268 268 268 269 269 269 270 270 270 270 270 270 270 269 268 268 268 267 267 267 267 267 267 267 267 266 266 265 263 262 260 259 257 256 256 256 257 257 258 259 260 260 261 261 261 261 261 262 262 263 264 264 265 265 266 267 267 268 269 270
268 267 268 268 268 269 269 270 270 271 271 271 271 272 272 271 270 270 269 269 268 267 266 266 265 266 266 266 266 267 266 266 265 263 261 260 259 258 258 258 259 259 259 260 261 262 262 261 261 261 261 262 263 264 265 265 266 266 267 267 268 268
264 265 265 266 267 268 268 268 269 269 270 271 271 271 272 272 271 271 270 270 269 269 268 268 267 266 265 264 264 264 265 265 265 265 265 264 263 262 261 260 260 259 259 259 260 260 261 261 262 261 261 261 261 262 263 264 265 265 266 267 267 268
262 262 263 264 264 265 266 266 267 267 268 268 269 269 270 270 271 271 270 269 269 268 268 268 267 267 266 264 263 262 261 261 261 262 263 264 265 264 263 262 261 260 260 259 259 259 259 260 260 261 261 261 261 261 262 263 264 265 265 266 267 267
263 263 263 263 263 263 264 264 265 265 266 266 267 267 268 268 268 269 269 269 268 267 266 265 265 265 265 264 263 262 260 259 258 257 257 258 260 261 262 262 261 261 260 259 258 258 258 258 259 259 260 260 260 261 262 262 262 263 264 265 266 266
263 263 262 263 263 264 264 265 265 266 266 267 267 267 267 267 267 267 267 268 268 267 266 264 262 261 261 261 261 261 260 259 258 257 255 255 255 257 258 259 259 260 259 259 258 258 257 257 257 257 258 258 259 259 260 261 261 261 262 264 265 265
261 262 263 263 264 265 265 266 266 267 267 268 268 268 268 268 268 268 268 268 268 267 267 265 263 261 259 258 258 258 259 258 258 257 256 255 255 256 257 258 259 259 259 259 259 258 258 257 256 256 256 256 257 257 258 259 259 260 260 261 262 261
262 262 263 265 266 267 267 267 267 267 268 268 269 269 270 270 270 270 270 270 270 270 268 266 264 262 261 261 260 258 257 257 257 257 257 256 257 257 258 259 260 260 260 260 259 258 258 257 257 256 255 256 256 256 256 256 256 256 257 259 259 259
263 264 264 265 266 267 268 268 268 268 268 268 269 270 271 272 272 272 272 272 273 273 272 270 267 264 263 263 264 262 259 258 258 258 257 257 257 258 260 260 261 261 262 262 261 260 258 257 257 256 255 255 256 256 255 255 254 254 254 255 258 259
263 264 265 265 265 266 268 269 269 269 268 268 269 270 271 272 273 274 274 275 275 275 275 274 272 269 265 264 266 268 265 262 261 261 260 259 258 258 259 260 261 261 262 262 263 262 260 258 256 255 255 255 256 256 256 255 254 254 253 253 255 258
261 262 263 265 265 266 268 269 269 270 270 270 270 270 271 272 273 274 276 277 277 277 276 275 275 273 269 266 266 268 268 267 265 264 262 261 261 260 259 259 260 260 260 261 261 262 261 260 257 254 253 255 257 257 257 256 256 255 254 254 254 256
261 261 263 264 266 267 268 269 270 270 271 271 271 271 271 272 273 273 274 276 276 275 275 275 275 274 272 268 267 266 265 265 265 265 263 262 261 261 261 261 261 261 260 260 261 262 262 261 259 255 253 254 257 257 257 257 258 257 257 257 257 256
260 261 262 263 263 264 265 267 268 269 270 270 270 271 271 271 272 272 271 271 272 271 272 274 275 275 274 272 269 266 263 263 265 266 265 264 263 262 262 262 262 262 261 262 263 264 263 260 259 257 256 256 257 257 257 257 258 258 258 258 258 258
259 260 260 260 260 260 261 263 265 266 267 268 268 268 269 268 269 269 269 270 270 270 271 273 274 276 276 275 273 269 266 265 267 268 269 268 266 264 264 263 262 261 261 262 262 263 263 261 258 257 257 258 258 258 258 257 258 258 258 259 259 259
259 260 259 259 259 260 261 263 265 266 268 268 268 268 268 268 268 269 270 271 272 273 273 273 274 275 276 276 276 274 272 270 269 270 271 270 268 266 266 265 263 261 261 261 262 264 266 265 261 258 257 257 258 259 258 258 258 257 256 258 260 260
Height
5704 5707 5710 5709 5709 5710 5712 5713 5713 5714 5714 5714 5715 5717 5719 5720 5721 5723 5724 5724 5725 5725 5725 5726 5726 5727 5728 5729 5730 5730 5732 5733 5734 5736 5737 5738 5738 5739 5739 5739 5740 5740 5740 5740 5740 5739 5739 5739 5739 5739 5738 5738 5737 5737 5737 5738 5738 5737 5737 5737 5736 5736
5695 5698 5701 5702 5704 5705 5705 5707 5707 5708 5708 5708 5709 5710 5711 5713 5713 5715 5715 5715 5717 5717 5718 5718 5719 5719 5720 5721 5722 5723 5724 5725 5726 5727 5728 5729 5729 5730 5730 5731 5731 5731 5731 5732 5732 5732 5732 5732 5732 5732 5731 5731 5731 5731 5731 5731 5731 5730 5730 5729 5728 5728
5689 5691 5692 5694 5696 5697 5698 5699 5700 5701 5701 5702 5702 5702 5703 5704 5705 5706 5706 5707 5708 5709 5710 5711 5711 5712 5712 5713 5714 5714 5716 5716 5717 5718 5719 5719 5720 5721 5721 5722 5723 5723 5723 5724 5724 5725 5725 5725 5725 5725 5725 5724 5725 5724 5724 5723 5723 5723 5723 5722 5721 5721
5681 5681 5682 5684 5686 5688 5689 5690 5691 5692 5693 5694 5694 5694 5694 5695 5696 5696 5697 5698 5699 5700 5702 5703 5703 5704 5705 5706 5706 5707 5708 5708 5709 5709 5710 5711 5712 5712 5713 5714 5715 5715 5715 5716 5717 5717 5718 5718 5718 5717 5717 5717 5717 5717 5717 5716 5715 5715 5715 5714 5714 5714
5668 5669 5671 5673 5675 5677 5679 5680 5681 5682 5682 5684 5685 5686 5686 5686 5687 5687 5688 5689 5690 5691 5693 5694 5695 5695 5696 5698 5698 5699 5700 5700 5700 5701 5702 5703 5704 5704 5706 5706 5707 5707 5708 5709 5710 5710 5710 5711 5710 5710 5709 5710 5710 5710 5710 5709 5708 5707 5707 5707 5706 5706
5656 5658 5661 5663 5664 5666 5668 5669 5671 5672 5673 5673 5674 5676 5677 5677 5678 5678 5678 5680 5681 5682 5684 5685 5686 5687 5688 5689 5689 5691 5691 5691 5692 5693 5694 5695 5696 5697 5698 5699 5699 5700 5700 5701 5702 5702 5703 5703 5702 5702 5702 5703 5702 5702 5702 5701 5701 5700 5700 5699 5699 5698
5646 5648 5650 5653 5654 5655 5656 5658 5659 5661 5662 5663 5664 5665 5667 5668 5668 5668 5669 5670 5671 5673 5674 5676 5677 5678 5679 5680 5680 5681 5682 5683 5684 5684 5685 5686 5688 5689 5690 5691 5691 5692 5692 5693 5693 5694 5695 5695 5694 5694 5695 5695 5695 5695 5695 5694 5693 5693 5692 5692 5691 5690
5636 5638 5639 5641 5643 5645 5646 5647 5648 5649 5651 5653 5654 5656 5657 5658 5658 5658 5659 5661 5662 5665 5666 5667 5667 5668 5669 5670 5671 5672 5673 5674 5675 5676 5677 5678 5679 5680 5681 5682 5683 5683 5683 5684 5684 5685 5686 5686 5686 5687 5687 5687 5686 5687 5687 5687 5686 5685 5685 5684 5683 5682
5625 5627 5629 5630 5632 5635 5636 5637 5638 5639 5640 5643 5645 5646 5648 5648 5648 5648 5649 5651 5653 5656 5658 5659 5658 5659 5660 5661 5661 5663 5664 5665 5666 5667 5668 5669 5670 5672 5672 5673 5674 5674 5674 5675 5675 5676 5677 5677 5678 5678 5678 5678 5678 5678 5678 5678 5678 5677 5677 5676 5675 5674
5613 5616 5619 5620 5622 5624 5626 5628 5629 5629 5630 5632 5635 5636 5636 5637 5637 5638 5640 5642 5644 5647 5649 5650 5649 5649 5651 5651 5652 5653 5654 5655 5656 5657 5659 5660 5661 5662 5663 5663 5664 5665 5665 5666 5666 5667 5667 5668 5669 5669 5669 5669 5669 5669 5669 5669 5669 5668 5668 5668 5667 5666
5602 5605 5608 5610 5612 5614 5617 5618 5619 5620 5620 5622 5624 5624 5625 5626 5627 5628 5631 5632 5635 5637 5639 5639 5639 5640 5640 5641 5642 5644 5645 5646 5647 5648 5649 5651 5652 5653 5653 5653 5654 5655 5656 5656 5657 5657 5658 5659 5660 5661 5660 5660 5660 5659 5659 5659 5659 5659 5659 5659 5658 5658
5590 5593 5596 5600 5603 5605 5607 5608 5608 5609 5610 5611 5613 5614 5615 5615 5616 5619 5621 5623 5626 5628 5628 5628 5629 5629 5630 5630 5632 5633 5635 5636 5637 5638 5640 5641 5642 5643 5643 5643 5644 5645 5646 5646 5647 5647 5648 5649 5650 5651 5651 5650 5650 5649 5649 5649 5650 5650 5650 5649 5649 5649
5579 5581 5584 5588 5592 5595 5596 5597 5597 5598 5600 5602 5604 5605 5605 5605 5606 5610 5612 5615 5618 5618 5618 5618 5618 5618 5618 5619 5620 5622 5625 5626 5627 5628 5630 5630 5631 5631 5632 5633 5634 5635 5635 5636 5637 5637 5638 5639 5640 5640 5640 5640 5640 5639 5638 5639 5640 5640 5640 5640 5640 5640
5568 5570 5572 5575 5580 5583 5585 5585 5586 5587 5590 5592 5593 5595 5596 5596 5598 5601 5603 5605 5607 5607 5607 5606 5606 5606 5607 5608 5610 5611 5614 5615 5616 5618 5619 5619 5619 5619 5620 5622 5623 5624 5624 5625 5626 5627 5628 5629 5629 5628 5628 5628 5629 5628 5628 5629 5629 5630 5630 5631 5631 5631
5556 5559 5562 5564 5567 5569 5572 5574 5576 5578 5580 5581 5583 5586 5588 5589 5590 5591 5592 5594 5595 5595 5596 5594 5594 5595 5597 5599 5600 5601 5602 5603 5605 5607 5608 5608 5608 5607 5609 5610 5611 5612 5613 5613 5614 5616 5617 5618 5618 5617 5617 5617 5618 5618 5618 5618 5619 5620 5620 5621 5621 5621
5544 5547 5551 5552 5553 5555 5558 5562 5564 5567 5570 5573 5575 5578 5579 5579 5579 5579 5580 5583 5584 5585 5584 5582 5583 5585 5587 5589 5589 5589 5590 5591 5593 5596 5596 5596 5596 5596 5597 5599 5599 5601 5602 5602 5602 5604 5605 5607 5608 5607 5606 5606 5606 5606 5607 5608 5608 5609 5610 5611 5611 5611
5536 5537 5538 5539 5540 5543 5545 5548 5550 5554 5559 5563 5565 5567 5568 5567 5567 5568 5570 5572 5574 5574 5573 5572 5573 5575 5577 5578 5577 5577 5579 5581 5582 5583 5584 5583 5584 5585 5586 5587 5588 5589 5590 5590 5591 5592 5594 5597 5597 5596 5596 5596 5595 5595 5596 5597 5598 5599 5600 5600 5600 5600
5527 5526 5527 5528 5529 5531 5532 5535 5538 5541 5545 5549 5552 5553 5555 5555 5556 5558 5559 5561 5563 5564 5563 5562 5562 5564 5566 5567 5567 5567 5569 5570 5571 5572 5572 5571 5572 5574 5575 5576 5577 5577 5578 5578 5579 5580 5584 5587 5586 5585 5585 5585 5585 5584 5584 5585 5587 5588 5589 5590 5590 5590
5515 5516 5517 5518 5518 5518 5520 5524 5527 5529 5531 5534 5536 5538 5540 5542 5544 5546 5548 5550 5552 5553 5552 5551 5551 5553 5555 5556 5556 5557 5559 5559 5560 5561 5561 5560 5561 5563 5564 5565 5565 5566 5566 5568 5569 5570 5573 5575 5575 5574 5575 5575 5574 5574 5574 5575 5576 5577 5578 5579 5580 5580
5505 5505 5506 5507 5507 5508 5510 5512 5514 5517 5519 5521 5522 5523 5525 5528 5530 5533 5536 5538 5540 5540 5540 5539 5539 5541 5543 5544 5545 5546 5548 5548 5549 5550 5549 5549 5551 5553 5554 5554 5554 5555 5556 5557 5559 5559 5561 5564 5564 5564 5564 5564 5563 5563 5564 5565 5565 5566 5568 5569 5569 5570
5494 5494 5495 5496 5497 5498 5500 5501 5502 5504 5506 5508 5510 5511 5512 5514 5517 5519 5522 5524 5526 5527 5527 5527 5527 5528 5530 5532 5534 5535 5536 5537 5538 5538 5538 5538 5539 5542 5543 5543 5544 5545 5546 5547 5548 5549 5550 5552 5554 5553 5553 5554 5553 5552 5553 5554 5554 5556 5557 5559 5560 5560
5484 5485 5485 5486 5487 5488 5489 5490 5491 5492 5493 5495 5497 5498 5500 5502 5504 5505 5507 5509 5511 5512 5513 5514 5514 5515 5517 5518 5520 5522 5523 5524 5525 5526 5526 5526 5527 5529 5531 5532 5533 5534 5535 5536 5536 5538 5539 5541 5543 5543 5543 5543 5543 5542 5542 5543 5544 5546 5547 5548 5549 5550
5476 5476 5476 5476 5477 5478 5479 5480 5480 5481 5481 5483 5484 5485 5487 5489 5491 5492 5494 5495 5497 5498 5499 5500 5500 5501 5503 5504 5505 5507 5510 5511 5512 5513 5514 5515 5515 5517 5519 5520 5521 5522 5523 5524 5525 5526 5528 5530 5531 5533 5533 5533 5532 5532 5531 5532 5534 5536 5537 5538 5538 5539
5466 5467 5467 5467 5467 5468 5469 5470 5470 5470 5470 5471 5472 5473 5474 5476 5478 5480 5481 5483 5484 5485 5486 5487 5487 5488 5490 5491 5491 5492 5495 5497 5497 5498 5501 5502 5503 5505 5507 5508 5509 5509 5511 5512 5513 5515 5517 5519 5520 5522 5522 5522 5522 5521 5521 5522 5524 5525 5527 5528 5529 5530
5457 5457 5457 5457 5457 5457 5458 5459 5459 5460 5459 5460 5460 5461 5462 5463 5465 5467 5469 5470 5472 5473 5474 5476 5476 5477 5477 5479 5479 5480 5482 5483 5484 5485 5486 5488 5490 5492 5494 5496 5496 5497 5499 5501 5502 5503 5506 5507 5508 5510 5511 5512 5512 5511 5510 5512 5514 5515 5516 5518 5519 5520
5446 5447 5447 5448 5448 5447 5448 5448 5448 5449 5449 5448 5449 5450 5451 5451 5452 5454 5456 5457 5459 5461 5462 5464 5465 5465 5466 5468 5468 5469 5471 5472 5472 5473 5473 5475 5476 5478 5480 5482 5483 5484 5486 5488 5490 5492 5494 5495 5497 5498 5500 5501 5501 5500 5500 5502 5504 5505 5506 5507 5509 5510
5437 5437 5437 5438 5439 5438 5438 5438 5438 5439 5439 5438 5438 5439 5440 5440 5441 5442 5443 5445 5446 5448 5450 5452 5453 5453 5455 5456 5457 5459 5460 5461 5462 5463 5463 5464 5465 5466 5467 5469 5469 5470 5472 5474 5476 5479 5481 5483 5485 5487 5488 5489 5489 5489 5489 5491 5493 5494 5496 5497 5499 5500
5428 5428 5428 5429 5429 5429 5429 5428 5428 5429 5429 5429 5429 5429 5430 5431 5431 5431 5432 5433 5434 5436 5438 5440 5441 5441 5443 5444 5445 5447 5449 5450 5452 5453 5453 5454 5455 5455 5456 5457 5457 5458 5459 5460 5462 5465 5467 5470 5472 5474 5475 5476 5477 5478 5478 5480 5482 5484 5485 5486 5488 5490
5419 5419 5419 5419 5420 5420 5420 5420 5420 5420 5420 5420 5420 5420 5421 5421 5422 5422 5423 5423 5423 5424 5426 5428 5429 5430 5431 5432 5433 5435 5437 5439 5441 5442 5443 5444 5444 5445 5445 5446 5446 5447 5448 5449 5450 5452 5454 5456 5459 5460 5462 5463 5464 5465 5466 5468 5470 5472 5474 5475 5476 5478
5410 5411 5411 5411 5412 5412 5412 5412 5412 5411 5411 5411 5411 5412 5412 5412 5412 5413 5414 5414 5414 5415 5416 5417 5418 5419 5420 5421 5423 5424 5425 5427 5429 5431 5432 5433 5434 5435 5435 5436 5436 5437 5438 5438 5439 5441 5442 5444 5446 5448 5449 5450 5451 5452 5453 5455 5458 5460 5462 5463 5465 5466
5402 5403 5403 5403 5403 5404 5403 5403 5403 5403 5403 5403 5403 5403 5403 5403 5403 5404 5404 5404 5405 5405 5406 5407 5407 5408 5410 5411 5412 5413 5415 5416 5418 5419 5421 5422 5424 5424 5425 5425 5426 5427 5428 5428 5429 5430 5432 5433 5434 5436 5437 5437 5438 5439 5440 5442 5444 5447 5449 5451 5452 5454
5393 5394 5394 5394 5395 5395 5395 5395 5395 5395 5395 5395 5395 5395 5395 5395 5395 5395 5395 5396 5396 5396 5397 5397 5398 5398 5400 5401 5402 5403 5404 5406 5407 5409 5410 5412 5413 5414 5415 5415 5416 5417 5418 5418 5419 5420 5422 5423 5424 5425 5426 5427 5427 5428 5429 5430 5432 5434 5437 5439 5440 5441
5385 5385 5385 5386 5386 5387 5387 5387 5386 5386 5387 5387 5387 5387 5387 5387 5387 5386 5387 5387 5387 5387 5388 5388 5388 5389 5390 5391 5392 5393 5395 5396 5398 5399 5400 5401 5402 5403 5404 5405 5406 5407 5408 5409 5409 5410 5411 5412 5413 5415 5416 5417 5417 5417 5417 5419 5420 5421 5424 5426 5428 5430
5376 5376 5376 5377 5378 5378 5378 5378 5378 5378 5378 5378 5379 5379 5379 5379 5379 5379 5379 5379 5379 5379 5380 5380 5380 5380 5381 5382 5384 5385 5387 5388 5389 5389 5390 5391 5392 5393 5394 5395 5396 5396 5397 5398 5399 5400 5401 5401 5403 5404 5405 5406 5406 5407 5407 5408 5408 5410 5412 5414 5417 5419
5367 5367 5368 5368 5369 5369 5370 5370 5370 5370 5370 5370 5371 5371 5371 5372 5372 5371 5371 5371 5372 5372 5372 5372 5372 5372 5373 5374 5376 5377 5378 5378 5379 5379 5380 5381 5382 5383 5384 5385 5386 5386 5387 5388 5389 5390 5390 5391 5392 5393 5394 5395 5396 5397 5398 5398 5398 5399 5401 5403 5405 5408
5358 5359 5359 5360 5360 5361 5361 5362 5362 5362 5363 5363 5363 5363 5363 5364 5364 5364 5364 5364 5364 5365 5365 5365 5365 5365 5365 5366 5367 5368 5369 5369 5369 5370 5371 5372 5373 5373 5374 5375 5376 5377 5378 5379 5379 5380 5380 5380 5381 5383 5384 5385 5386 5387 5388 5389 5389 5390 5391 5392 5394 5396
5348 5349 5350 5351 5352 5353 5353 5354 5354 5355 5355 5355 5356 5356 5356 5356 5356 5357 5357 5357 5357 5357 5358 5358 5358 5358 5358 5358 5359 5359 5360 5360 5361 5361 5362 5363 5364 5364 5365 5366 5367 5368 5369 5370 5370 5371 5371 5371 5372 5373 5374 5376 5377 5377 5378 5379 5379 5380 5381 5382 5383 5386
5338 5339 5340 5341 5343 5344 5344 5345 5346 5347 5347 5348 5348 5349 5349 5349 5349 5349 5349 5350 5350 5350 5351 5351 5351 5351 5351 5351 5351 5351 5352 5352 5352 5353 5354 5355 5356 5356 5356 5357 5358 5359 5360 5361 5361 5362 5362 5362 5363 5364 5365 5367 5368 5368 5369 5369 5369 5370 5371 5372 5374 5376